Lid_Strength_Index
0 -0 -0 -1 -0 -0 0 0 0 1 1 0 1 -0 -0 0 0 -0 -0 -0 -1 -1 -1 -1 -1 -1 1 4 4 2 -0 0 3 3 5 6 7 7 9 9 8 10 9 8 7 8 8
0 1 0 1 -1 -0 -0 0 0 -0 1 1 0 -0 -0 -0 0 -0 -0 -0 -0 -1 -1 -1 -1 -1 3 8 1 2 3 3 3 4 5 5 7 7 8 9 9 8 8 9 8 8 8
-0 -0 -0 0 -0 -0 -0 -0 -0 -0 -0 1 -0 0 -0 0 0 0 -0 -0 -0 -0 -0 -1 -1 1 5 6 1 2 3 3 3 4 5 5 5 7 7 8 7 8 10 10 9 8 9
0 -0 -1 -0 -0 -0 -0 -0 -0 -0 0 1 1 0 0 -0 0 -0 -0 -1 -1 -1 -1 -1 -1 2 7 2 2 3 3 4 3 3 4 4 5 5 6 7 8 10 11 13 10 9 9
0 1 1 -0 0 -0 -0 0 -0 -0 0 1 1 1 1 -0 0 0 -0 -1 -1 -1 -0 -1 2 4 7 1 3 3 3 4 4 4 4 4 4 7 7 10 12 11 15 13 11 8 9
1 1 2 2 1 1 1 0 1 1 1 0 1 1 1 1 1 1 -0 -1 -0 0 1 1 3 7 7 6 3 3 4 3 5 5 6 6 7 9 10 12 15 13 14 12 13 10 10
1 2 2 3 2 2 2 1 1 1 1 1 1 1 0 1 1 0 0 1 5 5 4 7 7 8 7 4 3 4 4 5 5 6 10 8 11 13 11 10 10 12 12 13 12 10 11
1 1 2 3 4 3 3 2 2 2 2 2 2 1 0 0 1 0 1 4 3 3 7 5 6 6 5 4 6 5 4 7 7 10 8 10 12 9 8 9 10 12 13 13 11 10 12
2 2 1 1 3 4 4 3 3 2 2 3 3 2 1 1 0 1 2 3 1 2 8 6 5 6 6 5 7 6 6 7 8 9 9 11 10 8 9 10 11 12 13 13 13 11 12
2 2 2 2 2 3 4 4 4 3 3 3 3 3 3 1 2 1 3 1 1 2 11 10 7 5 6 6 8 4 5 7 9 10 9 10 8 10 10 11 11 13 11 11 11 13 17
2 2 2 2 2 3 4 4 4 4 3 4 3 3 3 2 2 4 2 2 2 3 19 8 8 4 6 8 8 7 5 7 9 10 10 11 11 11 11 10 10 12 10 11 12 14 14
1 2 2 3 3 3 3 3 4 4 3 3 3 4 3 2 2 2 1 2 3 13 19 11 9 10 10 9 9 7 7 6 7 9 9 10 9 9 10 9 9 9 11 11 12 13 18
1 1 2 2 3 3 3 3 4 5 4 4 3 2 3 4 4 1 2 4 14 18 9 12 11 9 10 11 11 10 11 11 12 13 13 11 11 10 9 11 10 11 13 17 18 19 19
0 1 1 1 2 3 2 3 3 4 4 4 2 3 2 3 2 1 3 9 17 13 11 9 10 10 11 10 11 11 12 13 11 12 13 14 16 11 9 10 11 12 12 16 21 20 19
0 -0 1 1 1 2 3 3 3 3 3 2 3 3 3 1 2 1 7 15 15 12 9 10 10 12 12 11 12 12 13 13 11 11 15 15 15 11 10 10 9 12 14 11 15 19 19
-0 -0 0 0 1 2 2 3 3 3 2 2 4 5 4 0 0 3 9 13 11 8 8 8 12 10 13 12 13 13 13 11 11 10 10 13 16 13 12 11 11 12 10 15 15 21 22
-0 -0 -0 1 0 1 2 2 3 2 2 2 4 8 3 -0 1 6 13 11 9 7 7 10 11 12 12 11 12 13 13 11 10 10 9 11 13 15 13 14 14 14 14 13 13 15 19
-1 -0 -0 0 0 0 1 1 2 2 1 2 4 10 2 1 9 8 11 9 7 8 7 8 8 9 11 11 12 12 12 11 9 9 11 10 12 16 14 12 12 13 14 13 17 18 17
-0 -0 -0 -0 -0 0 0 1 1 2 1 2 6 7 1 2 12 11 8 8 7 8 9 8 9 8 8 11 14 11 11 8 8 9 11 10 13 18 16 14 13 14 13 12 12 15 17
0 -0 -0 0 0 -0 0 0 1 1 1 3 6 10 6 5 6 9 10 10 10 6 7 7 8 8 9 11 9 11 11 9 7 9 8 8 12 15 17 14 12 14 13 12 12 16 16
1 1 0 0 0 -0 -0 0 1 1 1 3 7 9 7 11 10 9 8 9 10 10 7 7 9 9 10 12 11 11 10 10 8 8 9 10 14 13 12 12 12 12 13 12 14 13 15
1 1 1 0 0 0 -0 -0 0 1 0 5 8 8 7 9 8 10 9 10 10 9 9 9 10 9 9 11 10 12 10 10 11 9 10 9 14 13 16 13 12 14 12 12 12 12 12
2 2 2 1 1 0 0 0 0 0 1 6 5 5 7 9 9 9 10 10 9 8 7 7 7 9 9 8 7 7 7 8 8 10 11 11 13 14 17 13 14 16 13 12 12 10 11
3 3 2 2 1 1 1 0 0 0 1 4 4 6 9 12 10 10 9 8 9 8 9 7 7 8 7 5 6 7 7 8 8 9 8 12 12 13 17 16 20 13 9 9 11 10 9
3 3 3 2 2 2 1 1 0 0 0 4 3 6 9 12 10 10 9 9 8 7 8 7 7 5 5 7 12 17 18 17 14 10 9 8 11 15 20 21 15 13 12 12 12 13 9
3 3 3 3 3 2 2 1 1 0 -0 2 4 3 6 11 12 8 9 9 11 12 10 9 8 6 6 10 15 21 22 18 20 16 11 10 9 13 19 20 23 13 10 8 8 14 10
3 3 3 3 3 2 2 2 1 1 -0 1 4 3 5 9 9 8 9 10 8 9 12 13 13 11 9 13 18 19 20 14 20 21 14 13 12 14 15 16 14 10 10 9 16 14 11
3 3 3 3 3 3 2 2 1 1 1 1 3 2 5 8 8 7 6 9 9 8 13 10 10 10 12 13 15 16 18 15 16 14 15 14 15 16 14 16 18 8 11 13 10 11 10
3 3 3 3 3 2 2 2 1 1 1 -1 3 1 1 6 8 5 5 4 5 5 8 9 11 13 10 14 15 15 18 16 16 21 12 15 14 16 14 15 9 8 10 8 7 8 9